INTELSAT 907 (IS-907)

Last updated on Jan. 1, 2021, 6:25 a.m. UTC

1 27683U 03007A   20366.91504733 -.00000263  00000-0  00000-0 0  9997
2 27683   0.6544  89.2907 0000700 249.4137 246.2654  0.99162942 65427
UTC
Height (km)
Latitude
Longitude
Inclination
Orbital Period
UTC large
Height (km)
Speed (km/s)
/
Latitude / Longitude
Inclination (degrees)
Orbital Period (minutes)
Azimuth
Elevation
Range (km)
Doppler Factor
iOS Compass Heading
iOS Angle

Next 30 passes for location: Hong Kong

Rise time Rise Azimuth (degrees) Set time Set Azimuth (degrees) Duration Max altitude (degrees)

No matching passes for this satellites